Preview of NWS' New Version of Forecast
This preview is not operational and should not be used for support decisions.

Regional Weather Roundup (RWR)

Issued by National Weather Service (NWS)

                            
000
ASUS43 KDMX 242006
RWRIA 

WEATHER ROUNDUP FOR IOWA
NATIONAL WEATHER SERVICE DES MOINES IA
300 PM CDT MON JUN 24 2019

NOTE: "FAIR" INDICATES FEW OR NO CLOUDS BELOW 12,000 FEET WITH NO
SIGNIFICANT WEATHER AND/OR OBSTRUCTIONS TO VISIBILITY.

* - THESE STATIONS ARE NOT NWS STATIONS...THUS NOT UNDER NWS
QUALITY CONTROL.  THEY ALSO DO NOT REPORT WEATHER SUCH 
AS PRECIPITATION OR FOG.  

IAZ001>003-012>014-020>022-031>034-043>046-242100-
   NORTHWEST IOWA
  
CITY           SKY/WX    TMP DP  RH WIND       PRES   REMARKS
CARROLL *      SUNNY     77  55  47 W16G23    29.73F                  
CHEROKEE *     MOSUNNY   78  57  48 W16       29.71F                  
DENISON *      SUNNY     77  61  57 W10G17    29.76S                  
LE MARS *      MOSUNNY   77  57  50 W12G18    29.71F                  
SHELDON *      MOSUNNY   70  64  83 CALM      29.69F                  
SIOUX CITY     MOSUNNY   79  57  46 W13G20    29.72F HX  80           
SPENCER        CLOUDY    75  59  57 W22G29    29.70F                  
STORM LAKE *     N/A     75  59  57 W15G24    29.69F                  
$$
 
IAZ055>058-069>071-079>083-090>094-242100-
   SOUTHWEST IOWA
  
CITY           SKY/WX    TMP DP  RH WIND       PRES   REMARKS
ATLANTIC *     SUNNY     77  55  47 W14       29.76S                  
AUDUBON *      SUNNY     75  57  53 CALM      29.77S                  
CLARINDA *     MOSUNNY   77  59  53 W10G21    29.81R                  
COUNCIL BLFS * MOSUNNY   77  55  47 W9G15     29.76R                  
CRESTON *      MOSUNNY   73  57  56 W15G22    29.78S                  
HARLAN  *      SUNNY     77  59  53 W15G23    29.76S                  
LAMONI         MOSUNNY   75  55  49 W16G25    29.79S                  
RED OAK *      MOSUNNY   79  57  47 W12G18    29.78S HX  80           
SHENANDOAH *   SUNNY     77  57  50 W10G23    29.78S                  
$$
 
IAZ047>049-059>061-072>074-084-242100-
   CENTRAL IOWA
  
CITY           SKY/WX    TMP DP  RH WIND       PRES   REMARKS
AMES             N/A     74  58  57 W15G24    29.72F                  
ANKENY *       MOSUNNY   75  57  53 W14G21    29.73F                  
BOONE *        SUNNY     73  57  56 W15G22    29.73S                  
CHARITON *     MOSUNNY   75  57  53 NW16      29.76S                  
DES MOINES     MOSUNNY   76  54  46 W16       29.73S                  
GRINNELL*      MOSUNNY   71  61  68 W14       29.73S                  
KNOXVILLE *    MOSUNNY   73  59  60 W18G24    29.74S                  
MARSHALLTOWN   MOSUNNY   71  59  65 W15G26    29.70S                  
NEWTON *       MOSUNNY   73  59  60 NW17G24   29.73S                  
PELLA *          N/A     73  57  57 NW15G22   29.75S                  
$$
 
IAZ004>006-015-016-023>025-035-036-242100-
   NORTH CENTRAL IOWA
  
CITY           SKY/WX    TMP DP  RH WIND       PRES   REMARKS
ALGONA *       SUNNY     75  59  57 W16G23    29.69F                  
CLARION *      MOSUNNY   73  59  60 W17       29.71S                  
ESTHERVILLE    RAIN      66  56  70 NW16G26   29.70S                  
FORT DODGE *   MOSUNNY   74  58  57 W17       29.72F                  
MASON CITY     PTSUNNY   73  57  57 W16G26    29.68S                  
FOREST CITY *  PTSUNNY   73  54  49 W16G22    29.68S                  
IOWA FALLS *   PTSUNNY   74  60  61 W16G26    29.72S                  
$$

IAZ007>011-017>019-026>030-037>042-050>054-066-242100-
   NORTHEAST IOWA
  
CITY           SKY/WX    TMP DP  RH WIND       PRES   REMARKS
CEDAR RAPIDS   FAIR      72  63  73 W22G30    29.67S                  
CHARLES CITY * FAIR      72  61  68 W17G24    29.66S                  
CLINTON *      PTSUNNY   77  64  64 W23G30    29.62F                  
DECORAH *        N/A     70  59  68 VRB6G17   29.61F                  
DUBUQUE        FAIR      73  61  65 W17G29    29.63R                  
MONTICELLO *   FAIR      70  64  83 W13       29.65R                  
OELWEIN *      FAIR      70  63  78 W21       29.66R                  
WATERLOO       FAIR      74  58  57 W13G24    29.67R                  
$$
 
IAZ064-065-067-068-078-242100-
   EAST CENTRAL IOWA
  
CITY           SKY/WX    TMP DP  RH WIND       PRES   REMARKS
DAVENPORT      FAIR      75  62  64 W20       29.66F                  
IOWA CITY      FAIR      76  61  59 W21G31    29.67F                  
MT. PLEASANT * PTSUNNY   73  63  68 W18       29.72R                  
MUSCATINE *    PTSUNNY   70  64  83 W21G28    29.68S                  
QUAD CITIES    FAIR      77  61  57 W16G25    29.64F                  
$$
 
IAZ062-063-075>077-085>089-095>099-242100-
   SOUTHEAST IOWA
  
CITY           SKY/WX    TMP DP  RH WIND       PRES   REMARKS
BURLINGTON     SUNNY     76  61  59 W9G23     29.70F                  
FAIRFIELD *    MOSUNNY   73  61  64 W18G28    29.72S                  
FORT MADISON * SUNNY     73  63  68 W12G18    29.73S                  
KEOKUK *       PTSUNNY   75  61  60 W14G24    29.73S                  
OSKALOOSA *    FAIR      74  57  55 W20G25    29.73F                  
CENTERVILLE *  FAIR      73  61  64 W16       29.78S                  
OTTUMWA        SUNNY     76  59  55 NW15G25   29.73S                  
WASHINGTON *   MOSUNNY   72  72 100 W17G23    29.69S                  
$$

ABBREVIATIONS USED IN REMARKS
   TC - TEMPERATURES IN CELSIUS
  WCI - WIND CHILL INDEX
   HX - HEAT INDEX
  VSB - VISIBILITY  
$$